Location: Peebles
(55.6412°N, 3.1714°W)
Time: 12:35:20
(UTC+00:00)

RS-15 - Pass Details

Date: 07 December 2023
Orbit: 1893 x 2151 km, 64.8° (Epoch: 02 March)

Event Time Altitude Azimuth Distance (km) Brightness Sun altitude
Exits shadow 03:37:39 66° 327° (NNW) 2,129 7.9 -38.8°
Maximum altitude 03:39:41 82° 38° (NE) 1,994 7.9 -38.6°
Drops below altitude 10° 03:50:48 10° 128° (SE) 4,310 10.2 -37.1°
Sets 03:54:00 0° 129° (SE) 5,288 10.7 -36.6°
